San Fermin Berria — EBVW — position and weather

sailwx.info

Track history (hours):
 
Tides and Currents Weather Stations Pressure Air Temp Water Temp Dewpoint Dewpoint Depression Visibility Wind Speed Wind Dir Waves Ship Positions

San Fermin Berria

Last reported at 2014-Jul-27 17:15 UTC. Time now 2014-Jul-30 21:25 UTC.
Position N 46°12' W 004°01'.

Length 30 m.

Type: Fishing. MMSI: 224114650.

Date/timePositionNaut miles runAvg speedWind from/ knotsBaromVisibWave heightAir tempDewpointWater temp
2014-Jul-27 17:15N 46°12' W 004°01'10 9.1
2014-Jul-27 16:12N 46°10' W 003°47'6 8.5
2014-Jul-27 15:32N 46°09' W 003°39'9 8.9
2014-Jul-27 14:32N 46°06' W 003°27'19 9.0
2014-Jul-27 12:25N 46°01' W 003°01'11 8.9
2014-Jul-27 11:13N 45°57' W 002°46'7 9.3
2014-Jul-27 10:31N 45°54' W 002°37'18 9.1
2014-Jul-27 08:33N 45°48' W 002°13'12 9.1
2014-Jul-27 07:14N 45°45' W 001°57'6 9.4
2014-Jul-27 06:33N 45°43' W 001°48'5 2.5
2014-Jul-27 04:22N 45°42' W 001°40'2 2.0
2014-Jul-27 03:29N 45°42' W 001°38'0 0.1
2014-Jul-27 02:08N 45°42' W 001°38'4 5.1
2014-Jul-27 01:27N 45°39' W 001°38'8 8.7
2014-Jul-27 00:31N 45°31' W 001°35'128 6.4
2014-Jul-26 04:28N 43°23' W 001°48'0 0.0
2014-Jul-26 03:32N 43°23' W 001°48'0 0.0
2014-Jul-26 02:31N 43°23' W 001°48'0 0.0
2014-Jul-26 01:26N 43°23' W 001°48'0 0.0
2014-Jul-26 00:31N 43°23' W 001°48'0 0.0
2014-Jul-25 23:32N 43°23' W 001°48'0 0.0
2014-Jul-25 22:33N 43°23' W 001°48'0 0.0
2014-Jul-25 21:33N 43°23' W 001°48'0 0.0
2014-Jul-25 20:32N 43°23' W 001°48'0 0.0
2014-Jul-25 19:31N 43°23' W 001°48'0 0.0
2014-Jul-25 18:32N 43°23' W 001°48'0 0.0
2014-Jul-25 17:17N 43°23' W 001°48'0 0.0
2014-Jul-25 16:27N 43°23' W 001°48'0 0.0
2014-Jul-25 14:26N 43°23' W 001°48'0 0.0
2014-Jul-25 13:29N 43°23' W 001°48'0 0.0
2014-Jul-25 12:33N 43°23' W 001°48'0 0.0
2014-Jul-25 11:29N 43°23' W 001°48'0 0.0
2014-Jul-25 10:33N 43°23' W 001°48'0 0.0
2014-Jul-25 09:32N 43°23' W 001°48'0 0.0
2014-Jul-25 08:32N 43°23' W 001°48'0 0.0
2014-Jul-25 07:33N 43°23' W 001°48'0 0.0
2014-Jul-25 06:33N 43°23' W 001°48'0 0.0
2014-Jul-25 04:29N 43°23' W 001°48'0 0.0
2014-Jul-25 00:33N 43°23' W 001°48'0 0.0
2014-Jul-24 23:33N 43°23' W 001°48'0 0.0
2014-Jul-24 22:32N 43°23' W 001°48'0 0.0
2014-Jul-24 21:32N 43°23' W 001°48'0 0.0
2014-Jul-24 20:33N 43°23' W 001°48'0 0.0
2014-Jul-24 19:33N 43°23' W 001°48'0 0.0
2014-Jul-24 18:33N 43°23' W 001°48'0 0.0
2014-Jul-24 17:32N 43°23' W 001°48'0 0.0
2014-Jul-24 16:31N 43°23' W 001°48'0 0.0
2014-Jul-24 15:31N 43°23' W 001°48'0 0.0
2014-Jul-24 13:33N 43°23' W 001°48'0 0.0
2014-Jul-24 12:33N 43°23' W 001°48'0 0.0
2014-Jul-24 10:16N 43°23' W 001°48'0 0.0
2014-Jul-24 09:33N 43°23' W 001°48'0 0.0
2014-Jul-24 08:33N 43°23' W 001°48'0 0.0
2014-Jul-24 07:33N 43°23' W 001°48'0 0.0
2014-Jul-24 06:33N 43°23' W 001°48'0 0.0
2014-Jul-24 05:33N 43°23' W 001°48'0 0.0
2014-Jul-24 04:33N 43°23' W 001°48'0 0.0
2014-Jul-24 03:31N 43°23' W 001°48'0 0.0
2014-Jul-24 02:28N 43°23' W 001°48'0 0.0
2014-Jul-24 01:33N 43°23' W 001°48'0 0.0
2014-Jul-24 00:31N 43°23' W 001°48'0 0.0
2014-Jul-23 23:31N 43°23' W 001°48'0 0.0
2014-Jul-23 22:33N 43°23' W 001°48'0 0.0
2014-Jul-23 21:33N 43°23' W 001°48'0 0.0
2014-Jul-23 20:33N 43°23' W 001°48'0 0.0
2014-Jul-23 19:33N 43°23' W 001°48'0 0.0
2014-Jul-23 18:33N 43°23' W 001°48'0 0.0
2014-Jul-23 17:33N 43°23' W 001°48'0 0.0
2014-Jul-23 16:32N 43°23' W 001°48'0 0.0
2014-Jul-23 15:24N 43°23' W 001°48'0 0.0
2014-Jul-23 14:28N 43°23' W 001°48'0 0.0
2014-Jul-23 13:33N 43°23' W 001°48'0 0.0
2014-Jul-23 12:25N 43°23' W 001°48'0 0.0
2014-Jul-23 11:33N 43°23' W 001°48'0 0.0
2014-Jul-23 10:25N 43°23' W 001°48'0 0.0
2014-Jul-23 09:33N 43°23' W 001°48'0 0.0
2014-Jul-23 08:33N 43°23' W 001°48'0 0.0
2014-Jul-23 07:33N 43°23' W 001°48'0 0.0
2014-Jul-23 06:33N 43°23' W 001°48'0 0.0
2014-Jul-23 05:33N 43°23' W 001°48'0 0.0
2014-Jul-23 04:33N 43°23' W 001°48'0 0.0
2014-Jul-23 03:32N 43°23' W 001°48'0 0.0
2014-Jul-23 02:24N 43°23' W 001°48'0 0.0
2014-Jul-23 01:30N 43°23' W 001°48'0 0.0
2014-Jul-22 23:23N 43°23' W 001°48'0 0.0
2014-Jul-22 22:32N 43°23' W 001°48'0 0.0
2014-Jul-22 21:33N 43°23' W 001°48'0 0.1
2014-Jul-22 20:33N 43°23' W 001°47'1 1.4
2014-Jul-22 19:32N 43°25' W 001°48'164 4.3
2014-Jul-21 05:08N 43°46' W 005°33'5 8.5
2014-Jul-21 04:32N 43°41' W 005°35'8 7.6
2014-Jul-21 03:32N 43°34' W 005°40'2 1.8
2014-Jul-21 02:33N 43°33' W 005°42'0 0.0
2014-Jul-21 01:33N 43°33' W 005°42'0 0.0
2014-Jul-21 00:33N 43°33' W 005°42'0 0.0
2014-Jul-20 23:33N 43°33' W 005°42'0 0.0
2014-Jul-20 22:33N 43°33' W 005°42'0 0.0
2014-Jul-20 21:33N 43°33' W 005°42'0 0.0
2014-Jul-20 20:33N 43°33' W 005°42'0 0.0
2014-Jul-20 19:33N 43°33' W 005°42'0 0.0
2014-Jul-20 18:33N 43°33' W 005°42'0 0.0
2014-Jul-20 17:33N 43°33' W 005°42'0 0.0
2014-Jul-20 16:33N 43°33' W 005°42'0 0.0
2014-Jul-20 15:33N 43°33' W 005°42'0 0.0
2014-Jul-20 14:33N 43°33' W 005°42'0 0.0
2014-Jul-20 13:33N 43°33' W 005°42'0 0.0
2014-Jul-20 12:33N 43°33' W 005°42'0 0.0
2014-Jul-20 11:33N 43°33' W 005°42'0 0.0
2014-Jul-20 10:33N 43°33' W 005°42'0 0.0
2014-Jul-20 09:33N 43°33' W 005°42'0 0.0
2014-Jul-20 08:33N 43°33' W 005°42'0 0.4
2014-Jul-20 07:33N 43°34' W 005°41'4 3.8
2014-Jul-20 06:33N 43°37' W 005°45'0 0.0
2014-Jul-20 05:33N 43°37' W 005°45'0 0.0
2014-Jul-20 04:33N 43°37' W 005°45'0 0.0
2014-Jul-20 01:24N 43°37' W 005°45'0 0.1
2014-Jul-20 00:30N 43°37' W 005°45'0 0.0
2014-Jul-19 23:33N 43°37' W 005°45'0 0.0
2014-Jul-19 22:07N 43°37' W 005°45'0 0.2
2014-Jul-19 21:33N 43°36' W 005°45'0 0.0
2014-Jul-19 20:33N 43°36' W 005°45'0 0.0
2014-Jul-19 17:23N 43°36' W 005°45'0 0.0
2014-Jul-19 16:25N 43°36' W 005°45'0 0.2
2014-Jul-19 15:33N 43°37' W 005°45'10 4.1
2014-Jul-19 13:06N 43°42' W 005°56'10 2.3
2014-Jul-19 08:33N 43°36' W 005°45'0 0.0
2014-Jul-19 07:22N 43°36' W 005°45'0 0.0
2014-Jul-19 06:26N 43°36' W 005°45'0 0.0
2014-Jul-19 05:33N 43°36' W 005°45'11 5.3
2014-Jul-19 03:29N 43°46' W 005°53'  
Track history (hours):
 
Tides and Currents Weather Stations Pressure Air Temp Water Temp Dewpoint Dewpoint Depression Visibility Wind Speed Wind Dir Waves Ship Positions

San Fermin Berria

Last reported at 2014-Jul-27 17:15 UTC. Time now 2014-Jul-30 21:25 UTC.
Position N 46°12' W 004°01'.

Length 30 m.

Type: Fishing. MMSI: 224114650.

Date/timePositionNaut miles runAvg speedWind from/ knotsBaromVisibWave heightAir tempDewpointWater temp
2014-Jul-27 17:15N 46°12' W 004°01'10 9.1
2014-Jul-27 16:12N 46°10' W 003°47'6 8.5
2014-Jul-27 15:32N 46°09' W 003°39'9 8.9
2014-Jul-27 14:32N 46°06' W 003°27'19 9.0
2014-Jul-27 12:25N 46°01' W 003°01'11 8.9
2014-Jul-27 11:13N 45°57' W 002°46'7 9.3
2014-Jul-27 10:31N 45°54' W 002°37'18 9.1
2014-Jul-27 08:33N 45°48' W 002°13'12 9.1
2014-Jul-27 07:14N 45°45' W 001°57'6 9.4
2014-Jul-27 06:33N 45°43' W 001°48'5 2.5
2014-Jul-27 04:22N 45°42' W 001°40'2 2.0
2014-Jul-27 03:29N 45°42' W 001°38'0 0.1
2014-Jul-27 02:08N 45°42' W 001°38'4 5.1
2014-Jul-27 01:27N 45°39' W 001°38'8 8.7
2014-Jul-27 00:31N 45°31' W 001°35'128 6.4
2014-Jul-26 04:28N 43°23' W 001°48'0 0.0
2014-Jul-26 03:32N 43°23' W 001°48'0 0.0
2014-Jul-26 02:31N 43°23' W 001°48'0 0.0
2014-Jul-26 01:26N 43°23' W 001°48'0 0.0
2014-Jul-26 00:31N 43°23' W 001°48'0 0.0
2014-Jul-25 23:32N 43°23' W 001°48'0 0.0
2014-Jul-25 22:33N 43°23' W 001°48'0 0.0
2014-Jul-25 21:33N 43°23' W 001°48'0 0.0
2014-Jul-25 20:32N 43°23' W 001°48'0 0.0
2014-Jul-25 19:31N 43°23' W 001°48'0 0.0
2014-Jul-25 18:32N 43°23' W 001°48'0 0.0
2014-Jul-25 17:17N 43°23' W 001°48'0 0.0
2014-Jul-25 16:27N 43°23' W 001°48'0 0.0
2014-Jul-25 14:26N 43°23' W 001°48'0 0.0
2014-Jul-25 13:29N 43°23' W 001°48'0 0.0
2014-Jul-25 12:33N 43°23' W 001°48'0 0.0
2014-Jul-25 11:29N 43°23' W 001°48'0 0.0
2014-Jul-25 10:33N 43°23' W 001°48'0 0.0
2014-Jul-25 09:32N 43°23' W 001°48'0 0.0
2014-Jul-25 08:32N 43°23' W 001°48'0 0.0
2014-Jul-25 07:33N 43°23' W 001°48'0 0.0
2014-Jul-25 06:33N 43°23' W 001°48'0 0.0
2014-Jul-25 04:29N 43°23' W 001°48'0 0.0
2014-Jul-25 00:33N 43°23' W 001°48'0 0.0
2014-Jul-24 23:33N 43°23' W 001°48'0 0.0
2014-Jul-24 22:32N 43°23' W 001°48'0 0.0
2014-Jul-24 21:32N 43°23' W 001°48'0 0.0
2014-Jul-24 20:33N 43°23' W 001°48'0 0.0
2014-Jul-24 19:33N 43°23' W 001°48'0 0.0
2014-Jul-24 18:33N 43°23' W 001°48'0 0.0
2014-Jul-24 17:32N 43°23' W 001°48'0 0.0
2014-Jul-24 16:31N 43°23' W 001°48'0 0.0
2014-Jul-24 15:31N 43°23' W 001°48'0 0.0
2014-Jul-24 13:33N 43°23' W 001°48'0 0.0
2014-Jul-24 12:33N 43°23' W 001°48'0 0.0
2014-Jul-24 10:16N 43°23' W 001°48'0 0.0
2014-Jul-24 09:33N 43°23' W 001°48'0 0.0
2014-Jul-24 08:33N 43°23' W 001°48'0 0.0
2014-Jul-24 07:33N 43°23' W 001°48'0 0.0
2014-Jul-24 06:33N 43°23' W 001°48'0 0.0
2014-Jul-24 05:33N 43°23' W 001°48'0 0.0
2014-Jul-24 04:33N 43°23' W 001°48'0 0.0
2014-Jul-24 03:31N 43°23' W 001°48'0 0.0
2014-Jul-24 02:28N 43°23' W 001°48'0 0.0
2014-Jul-24 01:33N 43°23' W 001°48'0 0.0
2014-Jul-24 00:31N 43°23' W 001°48'0 0.0
2014-Jul-23 23:31N 43°23' W 001°48'0 0.0
2014-Jul-23 22:33N 43°23' W 001°48'0 0.0
2014-Jul-23 21:33N 43°23' W 001°48'0 0.0
2014-Jul-23 20:33N 43°23' W 001°48'0 0.0
2014-Jul-23 19:33N 43°23' W 001°48'0 0.0
2014-Jul-23 18:33N 43°23' W 001°48'0 0.0
2014-Jul-23 17:33N 43°23' W 001°48'0 0.0
2014-Jul-23 16:32N 43°23' W 001°48'0 0.0
2014-Jul-23 15:24N 43°23' W 001°48'0 0.0
2014-Jul-23 14:28N 43°23' W 001°48'0 0.0
2014-Jul-23 13:33N 43°23' W 001°48'0 0.0
2014-Jul-23 12:25N 43°23' W 001°48'0 0.0
2014-Jul-23 11:33N 43°23' W 001°48'0 0.0
2014-Jul-23 10:25N 43°23' W 001°48'0 0.0
2014-Jul-23 09:33N 43°23' W 001°48'0 0.0
2014-Jul-23 08:33N 43°23' W 001°48'0 0.0
2014-Jul-23 07:33N 43°23' W 001°48'0 0.0
2014-Jul-23 06:33N 43°23' W 001°48'0 0.0
2014-Jul-23 05:33N 43°23' W 001°48'0 0.0
2014-Jul-23 04:33N 43°23' W 001°48'0 0.0
2014-Jul-23 03:32N 43°23' W 001°48'0 0.0
2014-Jul-23 02:24N 43°23' W 001°48'0 0.0
2014-Jul-23 01:30N 43°23' W 001°48'0 0.0
2014-Jul-22 23:23N 43°23' W 001°48'0 0.0
2014-Jul-22 22:32N 43°23' W 001°48'0 0.0
2014-Jul-22 21:33N 43°23' W 001°48'0 0.1
2014-Jul-22 20:33N 43°23' W 001°47'1 1.4
2014-Jul-22 19:32N 43°25' W 001°48'164 4.3
2014-Jul-21 05:08N 43°46' W 005°33'5 8.5
2014-Jul-21 04:32N 43°41' W 005°35'8 7.6
2014-Jul-21 03:32N 43°34' W 005°40'2 1.8
2014-Jul-21 02:33N 43°33' W 005°42'0 0.0
2014-Jul-21 01:33N 43°33' W 005°42'0 0.0
2014-Jul-21 00:33N 43°33' W 005°42'0 0.0
2014-Jul-20 23:33N 43°33' W 005°42'0 0.0
2014-Jul-20 22:33N 43°33' W 005°42'0 0.0
2014-Jul-20 21:33N 43°33' W 005°42'0 0.0
2014-Jul-20 20:33N 43°33' W 005°42'0 0.0
2014-Jul-20 19:33N 43°33' W 005°42'0 0.0
2014-Jul-20 18:33N 43°33' W 005°42'0 0.0
2014-Jul-20 17:33N 43°33' W 005°42'0 0.0
2014-Jul-20 16:33N 43°33' W 005°42'0 0.0
2014-Jul-20 15:33N 43°33' W 005°42'0 0.0
2014-Jul-20 14:33N 43°33' W 005°42'0 0.0
2014-Jul-20 13:33N 43°33' W 005°42'0 0.0
2014-Jul-20 12:33N 43°33' W 005°42'0 0.0
2014-Jul-20 11:33N 43°33' W 005°42'0 0.0
2014-Jul-20 10:33N 43°33' W 005°42'0 0.0
2014-Jul-20 09:33N 43°33' W 005°42'0 0.0
2014-Jul-20 08:33N 43°33' W 005°42'0 0.4
2014-Jul-20 07:33N 43°34' W 005°41'4 3.8
2014-Jul-20 06:33N 43°37' W 005°45'0 0.0
2014-Jul-20 05:33N 43°37' W 005°45'0 0.0
2014-Jul-20 04:33N 43°37' W 005°45'0 0.0
2014-Jul-20 01:24N 43°37' W 005°45'0 0.1
2014-Jul-20 00:30N 43°37' W 005°45'0 0.0
2014-Jul-19 23:33N 43°37' W 005°45'0 0.0
2014-Jul-19 22:07N 43°37' W 005°45'0 0.2
2014-Jul-19 21:33N 43°36' W 005°45'0 0.0
2014-Jul-19 20:33N 43°36' W 005°45'0 0.0
2014-Jul-19 17:23N 43°36' W 005°45'0 0.0
2014-Jul-19 16:25N 43°36' W 005°45'0 0.2
2014-Jul-19 15:33N 43°37' W 005°45'10 4.1
2014-Jul-19 13:06N 43°42' W 005°56'10 2.3
2014-Jul-19 08:33N 43°36' W 005°45'0 0.0
2014-Jul-19 07:22N 43°36' W 005°45'0 0.0
2014-Jul-19 06:26N 43°36' W 005°45'0 0.0
2014-Jul-19 05:33N 43°36' W 005°45'11 5.3
2014-Jul-19 03:29N 43°46' W 005°53'  

Dump ship's entire track history